Dewpoint
62 63 62 63 63 63 64 64 64 63 64 64 64 64 64 64 64 64 64 63 63 63 63 63 62 61 61 60 61 60 60 57 55 51 51 53 56 60 58 56 63 63 62 45 39 36 31 28 27 25 30 39 43 39 48 41 43 45 37 34 30 26 23 26 23 21 24 23 23 24 22 19 22 24 25 26 24 22 23 24 33 41 48 56 59 59 61 62
62 62 62 62 63 63 63 63 63 63 64 64 64 64 64 64 64 64 63 63 63 63 63 62 63 62 61 60 60 59 57 54 51 51 50 57 57 56 60 59 64 65 58 39 33 35 32 26 26 24 26 29 52 36 42 43 41 38 32 30 27 24 26 21 19 15 18 22 23 23 22 18 21 22 23 21 21 19 20 21 28 40 46 52 59 59 60 61
62 62 62 62 62 63 63 63 63 63 63 63 63 63 63 63 63 63 63 63 63 63 62 62 63 62 61 60 60 59 54 47 45 46 47 60 56 56 62 62 58 63 41 33 37 37 31 26 27 31 23 20 33 29 41 37 38 29 33 27 22 29 20 17 17 16 17 19 21 22 22 24 20 21 23 21 18 19 17 16 24 32 45 49 57 58 59 60
62 62 62 62 62 63 63 63 63 63 63 63 63 63 63 62 63 63 63 63 63 63 62 62 62 62 62 61 60 57 55 53 46 46 47 61 60 59 61 63 61 61 44 37 35 36 29 26 31 30 23 19 25 26 32 36 32 30 26 29 25 21 21 18 18 19 19 19 20 20 23 22 20 21 20 18 16 16 16 15 21 20 43 48 55 58 59 59
61 61 61 62 62 62 63 63 63 63 63 63 62 62 62 62 62 62 62 62 62 62 62 62 62 61 61 61 60 57 53 45 47 49 52 60 61 61 60 63 63 56 40 30 33 36 29 26 24 25 23 17 22 25 25 31 25 34 22 25 23 21 20 20 19 20 21 22 19 22 21 21 21 21 20 14 15 16 12 13 17 17 41 49 52 57 58 59
60 61 61 62 62 62 63 63 63 63 63 63 62 62 62 62 62 62 62 62 62 62 61 61 62 61 60 59 56 54 50 41 46 51 62 60 61 61 61 62 63 52 39 31 31 36 27 25 24 25 19 17 18 20 20 21 29 23 21 19 22 21 19 22 22 23 20 21 20 21 20 20 18 19 19 18 17 18 22 22 29 38 43 49 53 56 57 58
60 61 61 61 61 62 62 62 63 63 63 63 62 62 62 62 62 62 62 62 61 61 61 61 61 60 56 54 52 53 48 48 48 61 63 64 61 60 62 63 61 41 35 30 29 33 28 23 23 21 19 19 18 17 18 21 29 25 19 18 21 21 21 22 21 25 20 20 18 21 20 19 18 15 19 17 19 20 23 25 32 42 46 52 55 55 57 58
59 60 60 60 60 61 62 62 62 62 62 62 62 62 62 61 61 61 61 61 61 61 60 60 58 55 53 49 48 51 47 46 49 61 64 66 63 61 62 57 46 40 33 30 27 27 25 23 21 22 17 15 17 15 28 27 22 20 18 21 23 21 24 22 21 20 21 20 20 22 18 18 18 19 20 19 18 22 25 32 35 39 46 51 53 54 56 56
59 59 60 60 60 60 61 62 62 62 62 62 62 62 62 61 61 61 61 61 60 60 60 59 56 53 53 49 47 46 47 52 52 61 62 61 59 60 54 48 41 34 32 31 27 27 26 23 22 19 14 14 15 13 23 20 19 20 21 23 22 20 20 21 20 21 21 23 23 20 19 19 20 22 21 18 17 23 27 33 34 35 40 46 49 51 54 55
59 59 60 60 60 60 61 61 62 62 62 62 62 62 62 61 61 61 61 61 60 60 59 57 55 54 50 46 45 45 53 51 54 61 59 58 58 54 48 46 39 33 32 31 29 27 24 22 21 22 20 17 16 13 22 19 18 19 20 22 21 22 22 24 21 21 23 25 21 20 18 21 20 20 13 18 20 23 24 31 34 34 34 38 43 46 51 53
59 59 60 60 60 60 61 61 61 61 61 61 61 61 61 61 61 61 61 60 60 59 58 57 55 54 47 43 42 44 51 51 56 59 55 55 54 49 43 43 39 33 32 33 30 27 24 23 27 32 29 17 14 17 22 20 21 21 21 20 20 23 22 21 21 21 21 21 21 21 19 21 23 25 14 19 21 22 20 21 32 33 30 33 38 42 46 50
59 59 60 60 59 60 61 61 61 61 61 61 61 61 60 60 60 60 60 60 60 59 58 58 57 54 45 43 44 45 45 47 50 56 52 51 49 48 44 40 38 37 31 28 29 33 28 26 26 22 14 23 10 16 18 22 22 21 20 18 20 20 20 20 19 21 25 20 21 22 19 20 24 18 17 20 21 21 19 20 31 31 28 32 34 41 45 47
59 59 59 59 59 60 60 61 60 61 60 60 60 60 60 60 60 60 59 59 60 59 58 58 57 55 44 44 43 46 44 42 48 50 47 47 45 43 41 41 38 37 35 29 26 33 42 38 32 19 18 18 16 12 23 23 21 21 19 17 18 17 17 19 22 20 22 24 24 20 14 14 17 18 16 20 21 21 19 18 26 28 26 28 34 39 45 47
58 59 59 59 59 59 60 60 60 60 60 60 60 60 59 59 59 59 59 58 59 59 59 58 59 53 44 46 40 44 43 43 48 44 41 44 40 48 41 46 41 39 49 42 44 42 37 29 40 23 32 18 16 31 21 21 22 16 17 18 21 17 16 19 19 19 19 24 22 23 19 14 12 16 18 21 20 19 18 19 23 27 27 28 37 40 45 47
58 58 59 58 58 59 59 60 60 60 60 60 60 59 59 59 59 59 59 58 58 59 59 59 56 50 40 31 42 45 57 42 41 42 43 38 39 39 39 39 37 38 36 39 44 43 35 44 41 24 17 25 23 21 17 17 18 14 13 16 23 18 23 19 21 17 14 20 20 18 20 13 10 18 20 22 20 18 16 15 16 20 26 29 36 40 42 45
58 58 58 58 58 59 59 59 59 59 60 59 59 58 58 58 58 58 58 58 58 59 59 54 49 50 34 29 36 57 42 37 36 41 43 41 41 37 38 38 38 36 35 32 33 32 27 34 20 17 20 22 16 15 16 21 20 15 14 23 19 20 23 21 20 22 26 18 24 16 14 10 9 16 18 21 20 19 17 15 15 14 20 27 32 36 37 39
58 58 58 58 58 58 59 58 58 59 59 58 58 58 57 57 57 57 57 58 58 58 55 47 49 50 33 37 42 39 35 44 45 47 43 45 44 39 36 36 32 32 36 38 40 39 30 21 35 29 29 14 14 18 17 19 20 17 20 18 24 15 17 16 20 22 31 18 15 17 16 14 14 15 18 22 21 18 16 15 14 15 17 17 24 29 31 32
58 58 58 58 58 58 58 58 58 58 58 57 57 57 56 57 58 57 56 56 56 55 51 49 46 41 32 33 32 34 38 40 48 42 46 41 44 35 34 30 33 28 28 27 39 22 26 19 22 20 22 19 13 14 17 16 20 18 19 18 14 14 14 13 16 17 22 21 19 16 16 15 13 19 20 20 20 18 16 14 13 14 16 19 22 21 22 25
58 58 58 58 58 58 58 58 58 57 57 57 57 57 57 57 56 55 53 53 49 44 38 32 35 31 33 32 33 34 39 42 43 40 36 37 46 40 42 32 31 25 26 21 21 22 25 33 34 23 20 17 12 10 13 22 13 17 18 14 18 17 14 11 20 23 20 18 18 16 14 13 13 12 18 20 20 19 17 17 19 18 18 19 20 24 24 26
58 58 58 58 58 58 57 57 58 57 57 56 56 53 52 49 49 48 52 50 42 36 31 30 32 28 27 29 35 41 43 40 35 39 38 43 37 39 32 28 36 25 20 21 26 22 30 27 20 18 18 15 13 11 10 11 12 10 18 18 11 20 20 20 21 22 22 18 15 15 15 14 14 13 11 20 20 21 19 17 19 20 21 23 24 25 26 27
58 58 58 58 57 57 57 58 57 56 56 53 52 48 43 42 41 40 46 45 45 35 28 31 30 28 30 39 41 37 32 32 35 38 38 41 36 32 28 27 26 23 21 24 23 29 18 24 23 18 16 13 11 10 9 14 14 12 21 18 11 24 16 18 20 21 22 19 16 15 14 15 13 13 13 12 20 19 19 17 18 20 21 23 26 26 29 28
58 58 58 57 57 57 57 57 57 55 55 52 50 44 44 45 43 44 45 41 43 43 32 32 30 33 37 37 40 38 34 30 35 39 48 37 33 28 27 26 22 20 21 25 26 27 23 19 20 17 14 14 11 10 10 13 22 24 21 22 20 17 23 21 21 22 23 22 14 13 13 13 13 12 14 15 14 17 19 19 18 17 19 20 23 26 29 32
57 58 57 57 57 58 57 57 55 55 51 50 48 45 44 46 45 46 40 42 38 35 29 31 29 32 33 36 38 38 27 28 31 38 37 39 31 31 27 24 20 20 19 21 22 26 23 23 18 15 14 18 18 12 13 26 29 23 23 17 18 26 17 23 20 21 21 15 23 22 19 20 18 18 16 15 14 13 18 20 22 22 19 19 19 24 28 31
57 57 57 57 57 57 57 56 55 52 50 50 47 46 47 50 44 39 33 29 26 27 28 30 28 32 33 31 37 35 25 23 33 34 39 35 28 35 27 24 18 22 18 20 21 20 18 21 23 23 17 16 19 22 19 16 16 27 31 26 21 28 23 22 19 20 21 20 25 19 20 12 14 14 13 14 15 14 15 19 22 28 30 29 37 37 39 31
57 57 57 57 56 56 56 55 51 50 50 49 47 48 51 52 51 52 30 27 28 35 41 32 46 38 35 46 44 31 24 28 36 34 39 33 27 26 24 25 18 21 20 21 20 23 20 21 29 21 23 17 25 16 23 26 13 20 29 27 26 25 21 23 23 16 18 20 25 21 12 19 14 10 10 10 12 13 15 22 25 28 31 33 31 32 36 40
56 56 56 56 56 56 56 51 50 50 49 48 47 49 50 53 50 50 34 28 24 28 37 25 42 26 40 34 40 41 27 25 40 42 36 42 40 28 22 21 22 20 18 22 18 25 21 25 32 27 28 29 27 23 29 25 17 19 16 27 23 24 27 27 27 23 15 13 27 26 11 14 17 15 11 10 15 14 19 24 23 24 26 28 29 30 30 31
56 56 56 56 56 56 51 48 51 49 47 48 49 49 50 54 52 46 32 25 24 31 24 33 32 34 44 33 31 28 19 23 38 39 35 44 30 37 19 19 20 22 19 24 26 19 24 24 31 32 30 30 28 20 32 19 18 15 31 40 30 28 32 30 31 26 20 27 29 25 26 15 15 11 19 15 14 14 16 18 21 19 21 24 27 30 33 35
56 56 56 56 56 53 49 50 49 48 47 48 49 50 52 51 51 43 31 19 19 28 25 26 33 46 41 32 34 19 29 31 28 32 38 41 33 28 23 18 18 23 19 22 16 36 26 27 33 32 32 27 23 25 32 25 22 26 33 38 30 26 32 32 29 26 26 22 19 20 28 12 16 17 14 12 11 11 9 14 18 18 21 27 31 35 39 40
56 55 55 55 55 52 51 49 48 47 48 49 49 51 51 46 45 30 23 16 31 21 37 19 42 37 35 31 28 28 29 27 20 32 41 35 39 28 20 20 17 21 23 23 15 33 33 33 30 31 29 24 32 29 36 31 20 32 37 37 37 36 34 33 23 25 24 16 19 21 27 14 14 20 14 14 12 13 10 7 11 17 23 32 34 36 37 38
55 55 55 55 53 50 49 49 48 48 50 52 51 50 49 44 35 25 16 12 27 20 22 30 32 30 29 26 25 26 26 29 32 31 29 26 30 34 26 29 18 22 29 33 33 34 31 31 32 34 30 36 29 30 37 35 35 36 36 31 31 30 27 24 25 23 19 16 20 22 26 17 16 21 13 17 19 10 6 7 26 32 33 35 37 38 39 38
55 55 55 54 49 49 48 46 47 49 51 52 49 46 43 40 23 16 13 25 27 29 27 24 24 32 27 25 22 25 27 30 30 28 26 25 23 24 26 24 32 32 31 32 34 34 32 32 34 35 35 30 31 34 36 37 35 36 31 27 26 22 21 18 18 20 15 16 20 20 26 24 13 16 15 11 9 11 14 14 24 28 31 34 35 34 34 36
55 55 55 52 50 50 46 46 47 50 51 50 45 41 33 18 22 15 16 22 20 25 24 21 26 28 27 26 27 24 27 28 29 26 24 23 23 20 22 23 27 22 19 24 26 33 29 30 35 37 35 30 37 27 29 34 35 34 26 21 18 19 19 14 16 14 15 14 15 18 25 20 18 13 8 7 6 9 15 21 21 27 31 34 35 36 37 38
55 54 54 51 50 49 51 48 49 50 50 48 41 38 24 18 13 17 22 21 22 25 25 23 24 25 26 25 24 24 33 27 28 25 26 27 23 24 26 23 27 21 16 25 28 24 28 34 33 36 34 33 38 22 24 20 25 28 20 20 17 15 12 9 15 15 15 16 18 14 21 15 18 12 15 13 11 7 18 31 30 29 30 33 34 36 39 39
54 54 50 49 49 52 52 49 49 49 47 47 38 32 22 16 14 26 24 23 29 26 23 22 23 24 24 21 26 27 26 33 27 24 25 25 24 22 23 27 25 26 30 24 21 20 22 20 24 30 23 34 33 27 23 23 23 23 26 23 21 16 14 9 13 13 14 18 14 19 12 19 8 14 19 12 18 22 23 29 30 31 32 33 32 36 39 39
54 51 49 50 51 52 51 50 49 48 46 44 37 23 19 15 17 17 21 25 26 22 21 24 23 24 23 25 27 28 26 30 29 26 26 24 22 22 21 20 28 24 31 20 25 19 19 22 33 37 37 32 30 37 38 31 25 28 32 32 20 21 19 19 20 18 16 13 13 13 14 18 12 20 15 19 19 21 24 25 28 29 32 33 31 34 36 39
51 50 49 48 48 51 51 51 49 47 44 39 27 21 19 18 17 21 23 25 21 24 22 22 25 21 20 22 29 26 38 31 28 27 26 25 24 22 25 24 24 23 23 18 24 18 19 16 34 37 38 29 33 36 35 35 19 24 25 22 26 29 23 20 19 18 14 11 14 20 16 17 16 10 9 20 16 16 21 22 24 26 29 32 32 37 37 39
49 50 47 48 49 51 51 50 49 46 43 35 21 19 21 24 39 26 31 21 22 25 23 19 21 18 19 20 27 25 33 31 30 27 23 28 24 25 25 24 26 24 24 25 23 29 17 28 32 31 30 35 33 35 37 34 34 24 19 25 31 31 29 19 13 16 12 7 10 16 12 8 9 15 18 18 17 13 18 19 18 27 30 29 36 38 39 40
49 48 47 47 49 51 51 49 47 45 43 36 23 26 27 26 39 28 28 26 25 25 22 20 21 24 18 20 25 23 32 25 28 28 26 25 24 26 26 25 24 24 23 28 23 27 29 22 29 31 33 34 38 38 30 35 34 28 26 35 19 16 14 14 10 9 8 6 6 12 13 11 12 14 8 12 15 13 15 18 17 24 27 28 37 38 39 40
48 46 43 47 50 50 50 48 45 42 39 32 25 24 33 41 41 30 26 25 27 26 22 24 21 23 20 24 26 25 28 23 28 26 24 26 21 26 23 25 28 24 24 24 21 31 27 24 27 32 35 33 32 28 22 24 33 33 31 27 32 19 20 18 16 16 13 13 3 13 9 13 20 12 13 11 13 15 13 16 15 20 26 27 35 38 38 40
46 43 42 48 51 50 49 46 43 39 34 27 25 25 38 35 38 33 27 25 26 23 24 26 25 20 24 26 25 25 28 25 28 27 25 28 23 26 22 25 27 26 23 26 30 34 21 24 24 29 34 31 24 26 22 23 23 21 21 19 20 22 24 22 23 17 13 9 10 7 8 16 21 12 8 7 10 13 13 16 19 22 25 28 35 38 39 39
45 41 44 51 50 49 47 43 38 35 31 27 24 31 33 34 38 38 41 39 33 37 22 27 24 20 24 25 22 27 26 25 28 25 24 26 21 24 27 24 28 25 24 29 27 29 22 14 24 27 26 25 29 36 36 35 24 21 20 19 19 19 16 11 15 18 15 11 12 4 9 13 22 20 9 6 14 18 17 17 20 21 24 28 36 38 38 38
44 38 42 50 49 47 42 38 36 34 29 25 24 33 36 39 36 36 38 39 37 35 37 32 28 27 26 24 24 28 25 22 27 25 25 24 25 26 31 25 25 25 22 21 20 36 28 30 28 27 27 27 35 35 36 36 34 35 29 23 25 21 18 16 12 19 15 18 17 19 7 19 29 27 24 17 22 19 22 28 22 24 25 29 37 38 37 38
42 41 49 50 48 46 39 34 34 32 29 30 39 37 37 35 34 37 34 37 35 39 36 32 29 28 29 27 28 27 24 22 26 24 25 25 29 27 35 24 28 28 24 23 28 26 33 28 28 28 28 31 31 35 35 36 36 31 30 31 28 20 20 17 17 22 19 16 9 10 8 13 22 30 26 27 25 27 24 24 29 27 30 33 37 37 37 38
44 43 45 50 50 50 36 29 30 30 30 36 35 40 42 36 34 33 33 36 34 37 34 37 32 32 29 32 27 27 26 19 27 27 26 28 27 39 37 34 25 26 22 24 19 30 18 26 26 27 26 25 27 29 28 32 34 27 26 27 29 29 28 24 21 22 16 23 19 15 10 14 25 29 27 22 22 17 20 19 23 33 34 36 36 37 38 39
43 44 46 47 50 49 39 32 29 29 31 32 36 35 36 38 42 36 33 34 37 33 35 33 35 36 35 35 32 32 27 24 25 30 30 30 36 38 39 35 30 24 35 33 32 28 22 26 23 21 18 16 16 17 18 23 26 27 27 28 31 29 29 21 19 18 16 22 19 14 15 16 19 21 20 22 22 19 19 19 18 29 36 37 38 38 38 38
40 34 41 43 46 45 45 44 41 31 31 32 32 34 31 34 37 40 38 40 42 41 38 38 37 34 33 32 31 29 28 29 31 28 31 30 31 34 39 39 32 30 37 35 32 24 22 26 21 20 18 16 18 20 27 29 26 24 26 26 29 29 29 28 21 21 17 20 19 20 18 16 14 14 19 19 21 17 15 20 17 22 34 37 37 38 38 37
42 36 37 34 41 42 41 41 40 36 31 32 28 31 28 30 35 35 41 33 38 39 38 35 35 29 31 30 30 29 30 31 34 30 29 33 36 35 37 39 37 35 36 32 31 26 26 20 23 23 22 20 23 26 30 27 26 27 27 26 28 29 27 27 24 20 21 21 17 21 24 20 16 15 19 17 20 20 21 21 20 23 35 37 37 37 37 36
34 37 40 41 36 34 35 37 39 37 35 31 31 31 29 31 30 30 38 40 39 39 34 36 33 29 30 29 29 27 30 30 31 29 32 34 33 32 31 35 36 37 32 33 33 25 24 20 25 24 23 24 26 27 29 29 25 26 26 26 26 28 28 27 26 25 24 21 17 19 22 21 17 17 18 17 18 16 16 18 20 21 35 36 36 36 36 36
38 37 38 40 35 37 36 37 39 38 35 31 31 31 30 29 27 30 34 38 37 36 35 28 32 32 31 32 29 28 30 27 27 29 29 29 29 30 28 29 33 34 32 30 30 32 21 21 24 26 23 25 27 28 32 27 27 27 26 26 26 27 28 27 26 26 24 23 23 21 21 22 20 19 20 19 20 19 18 22 23 28 34 35 35 35 35 36
33 34 34 38 38 37 36 37 37 37 33 32 28 31 31 29 26 32 37 34 31 33 38 31 30 33 32 32 29 27 30 28 29 28 34 31 27 28 27 28 28 29 30 27 29 26 23 22 27 24 20 22 26 28 33 33 31 27 27 27 27 28 28 28 27 26 26 24 23 23 23 22 22 22 23 27 26 29 27 22 21 26 33 35 34 34 34 35
38 37 39 36 33 36 36 36 35 34 32 30 27 32 31 31 28 32 35 36 29 29 34 30 32 33 33 32 30 27 33 32 32 31 33 31 28 31 26 29 30 28 28 29 26 32 26 25 25 24 21 21 24 24 27 30 30 29 28 29 30 29 27 28 27 27 25 24 24 24 23 22 21 23 23 28 27 24 23 24 24 29 34 34 34 34 34 34
40 41 40 39 32 35 36 36 34 33 30 31 29 31 31 31 32 33 35 38 41 41 35 35 34 31 32 32 30 29 38 40 40 36 34 37 36 35 41 34 29 28 29 27 29 28 25 24 24 24 21 20 23 24 24 26 25 25 25 27 29 29 29 29 29 29 27 26 24 23 21 22 22 23 22 24 26 23 22 23 26 29 33 34 33 33 33 34